[[{"header":{"parameterUnit":"m.s-1","parameterCategory":1,"la1":30.2991,"la2":30.254,"lo1":-89.0895,"lo2":-89.0444,"dy":0.0017,"dx":0.0017,"nx":28,"ny":28,"refTime":"2024-04-10T21:00:00:Z","depth":0,"parameterNumber":2,"parameterNumberName":"U-component_of_WINDS"},"data":[0,0,0,0,0,0,0,0,0,0,0,0,0,0,0,0,0,0,0,0,0,0,0,0,0,0,0,0,0,0,0,0,0,0,0,0,0,0,0,0,0,0,0,0,0,0,0,0,0,0,0,0,0,0,0,0,0,0,3.3467,3.3468,0,3.3573,3.3575,3.3576,3.3529,3.3527,3.3524,3.3521,3.3633,3.3638,3.3644,0,0,0,0,0,0,0,0,0,0,0,0,0,3.3225,3.323,3.3466,3.3468,3.3469,3.3573,3.3575,3.3576,3.353,3.3526,3.3523,3.352,3.3631,3.3638,3.3644,0,0,0,0,0,0,0,0,0,0,0,0,0,3.3331,3.3231,3.3466,3.3458,3.3459,3.3573,3.3575,3.3577,3.353,3.3526,3.3522,3.3519,3.3629,3.3637,3.3645,3.3774,0,0,3.367,3.3673,0,0,0,0,0,0,0,0,3.3325,3.334,3.3458,3.3459,3.346,3.3534,3.353,3.3643,3.3531,3.3503,3.3521,3.3517,3.3603,3.3613,3.3642,3.3779,3.3784,3.3671,3.3676,3.3679,3.3681,0,0,0,0,0,0,0,3.3318,3.3335,3.3509,3.346,3.3461,3.3451,3.3461,3.3552,3.3574,3.3505,3.3502,3.3515,3.3603,3.3634,3.3644,3.3785,3.367,3.3678,3.3683,3.3686,3.4035,3.4039,0,0,0,0,0,0,3.331,3.3329,3.3505,3.3512,3.3381,3.3458,3.347,3.3514,3.3573,3.3578,3.3519,3.3513,3.3622,3.3635,3.3648,3.3804,3.3679,3.3687,3.3691,3.4031,3.4036,3.4041,0,0,0,0,0,0,3.3305,3.3326,3.3501,3.342,3.3441,3.3466,3.3516,3.3518,3.3549,3.3583,3.3587,3.3546,3.362,3.3637,3.3743,3.3807,3.369,3.3698,3.4025,3.4032,3.4038,3.4115,0,0,0,0,0,0,3.3298,3.3325,3.3373,3.3421,3.3446,3.3594,3.352,3.3523,3.3563,3.3557,3.361,3.3615,3.3618,3.3731,3.3751,3.3816,3.3704,3.402,3.4028,3.4036,3.4107,3.4124,3.4138,0,0,0,0,0,3.329,3.3391,3.3376,3.3397,3.3507,3.3597,3.3611,3.3612,3.3569,3.3618,3.364,3.3613,3.3797,3.3743,3.3765,3.3833,3.4016,3.4026,3.4036,3.41,3.4121,3.4138,0,0,0,0,0,0,3.335,3.3397,3.3381,3.35,3.3545,3.3589,3.3651,3.3633,3.3692,3.3684,3.3683,3.3695,3.3806,3.383,3.3769,3.3961,3.39,3.3915,3.3941,3.3961,3.3976,3.3968,3.3711,0,0,0,0,0,3.3377,3.3446,3.3483,3.3585,3.3608,3.3626,3.3666,3.3662,3.3709,3.3728,3.3758,3.3805,3.3873,3.3918,3.3983,3.411,3.4122,3.4168,3.4184,3.4196,3.4209,3.428,3.4301,3.4073,3.4073,3.4073,0,0,3.3433,3.3468,3.3511,3.3598,3.3632,3.3705,3.3643,3.3721,3.3776,3.3741,3.3843,3.3866,3.3919,3.4037,3.409,3.4061,3.4275,3.4209,3.4219,3.4225,3.4292,3.4314,3.4333,3.408,3.4079,3.4078,0,0,3.3574,3.3606,3.3695,3.3731,3.3784,3.3795,3.3817,3.3864,3.3878,3.3981,3.3956,3.4021,3.4139,3.4178,3.4213,3.437,3.4348,3.4391,3.4471,3.454,3.4558,3.4574,3.4631,3.4651,3.4403,3.4404,3.4404,0,3.3638,3.3745,3.3743,3.3824,3.3864,3.3835,3.3926,3.3961,3.4033,3.4061,3.4026,3.4174,3.4207,3.4335,3.4373,3.4402,3.4428,3.4385,3.4555,3.4571,3.4586,3.4641,3.4662,3.4409,3.4408,3.4407,3.4407,0,3.3821,3.3896,3.3962,3.4032,3.4078,3.4164,3.4176,3.4224,3.4217,3.4233,3.4339,3.4378,3.445,3.448,3.4474,3.4608,3.4587,3.4554,3.4493,3.4613,3.4664,3.4685,3.4416,3.4414,3.4412,3.4411,0,0,3.4002,3.407,3.4094,3.4126,3.4183,3.4241,3.4327,3.4397,3.4439,3.449,3.4562,3.4662,3.4632,3.4672,3.4671,3.4731,3.4854,3.4691,3.4692,3.4721,3.5005,3.503,3.5054,3.484,3.4844,3.4847,3.5001,0,3.4147,3.4295,3.4297,3.4433,3.4503,3.4478,3.4552,3.4596,3.4613,3.4676,3.4695,3.4767,3.4721,3.4745,3.4804,3.4827,3.4912,3.4816,3.4909,3.4912,3.4897,3.5081,3.5107,3.525,3.5021,3.5024,3.5027,0,3.4336,3.4393,3.4537,3.4585,3.4614,3.4681,3.4746,3.4806,3.4856,3.4864,3.491,3.4899,3.4987,3.4923,3.5045,3.498,3.5018,3.5035,3.504,3.505,3.4977,3.5096,3.5296,3.5317,3.5058,3.5055,3.5053,0,3.4455,3.4567,3.4668,3.4696,3.4754,3.4802,3.4828,3.4874,3.4917,3.4974,3.5002,3.507,3.5107,3.516,3.5169,3.5121,3.5292,3.5227,3.5302,3.5302,3.534,3.5337,3.555,3.5363,3.5363,3.5363,3.5362,0,3.4617,3.4707,3.4722,3.4784,3.4884,3.4885,3.4984,3.5007,3.5048,3.5115,3.5097,3.5161,3.5168,3.5234,3.5241,3.5342,3.5359,3.5369,3.537,3.5371,3.537,3.5396,3.5387,3.5368,3.5367,3.5366,3.5365,0,3.4767,3.478,3.4889,3.4935,3.4949,3.5021,3.5061,3.5121,3.5136,3.5221,3.5242,3.5267,3.5343,3.5357,3.5448,3.5453,3.5573,3.5564,3.5557,3.5556,3.563,3.5623,3.5867,3.59,3.5692,3.5694,3.5695,0,3.4869,3.4938,3.4991,3.5034,3.5063,3.5133,3.5177,3.5181,3.5228,3.529,3.5343,3.5418,3.5478,3.5603,3.5629,3.5699,3.5692,3.5772,3.5702,3.5701,3.5694,3.569,3.5698,3.5786,3.5788,3.579,3.5792,0,3.5051,3.5055,3.5118,3.5184,3.5237,3.5289,3.5339,3.5376,3.5387,3.544,3.5518,3.5565,3.5658,3.5733,3.5803,3.5831,3.5814,3.5814,3.5835,3.5837,3.583,3.5836,3.5594,3.5808,3.5806,3.5805,3.5804,3.5804,3.5181,3.5241,3.5288,3.5359,3.5397,3.5445,3.5504,3.5527,3.5592,3.5667,3.5666,3.5752,3.5801,3.5893,3.5926,3.5994,3.5969,3.5999,3.6007,3.6014,3.6022,3.5819,3.6007,3.6006,3.6006,3.6006,3.6005,0,3.5362,3.5392,3.5457,3.5527,3.5584,3.5562,3.5617,3.5666,3.5741,3.5789,3.5848,3.5939,3.6012,3.6045,3.6117,3.6166,3.616,3.6184,3.6181,3.6188,3.604,3.6015,3.6188,3.6188,3.6188,3.6188,3.6188,3.6188,3.5463,3.5564,3.5573,3.5693,3.5722,3.5805,3.5838,3.5882,3.592,3.6022,3.6082,3.6103,3.6145,3.622,3.6287,3.6295,3.6323,3.6352,3.6356,3.6217,3.6199,3.6181,3.6157,3.6357,3.6358,3.6498,3.65,3.6501]},{"header":{"parameterUnit":"m.s-1","parameterCategory":1,"la1":30.2991,"la2":30.254,"lo1":-89.0895,"lo2":-89.0444,"dy":0.0017,"dx":0.0017,"nx":28,"ny":28,"refTime":"2024-04-10T21:00:00:Z","depth":0,"parameterNumber":3,"parameterNumberName":"V-component_of_WINDS"},"data":[0,0,0,0,0,0,0,0,0,0,0,0,0,0,0,0,0,0,0,0,0,0,0,0,0,0,0,0,0,0,0,0,0,0,0,0,0,0,0,0,0,0,0,0,0,0,0,0,0,0,0,0,0,0,0,0,0,0,-3.6064,-3.6066,0,-3.6216,-3.6218,-3.622,-3.6171,-3.6168,-3.6165,-3.6162,-3.6321,-3.6328,-3.6335,0,0,0,0,0,0,0,0,0,0,0,0,0,-3.5735,-3.5741,-3.6064,-3.6066,-3.6068,-3.6216,-3.6218,-3.622,-3.6172,-3.6168,-3.6164,-3.616,-3.6319,-3.6327,-3.6336,0,0,0,0,0,0,0,0,0,0,0,0,0,-3.5882,-3.5743,-3.6063,-3.6061,-3.6063,-3.6216,-3.6218,-3.6221,-3.6173,-3.6168,-3.6163,-3.6158,-3.6316,-3.6326,-3.6337,-3.6503,0,0,-3.6371,-3.6375,0,0,0,0,0,0,0,0,-3.5873,-3.5894,-3.606,-3.6062,-3.6063,-3.617,-3.6161,-3.6316,-3.6174,-3.6131,-3.6161,-3.6156,-3.6275,-3.6289,-3.6328,-3.651,-3.6517,-3.6372,-3.6378,-3.6383,-3.6386,0,0,0,0,0,0,0,-3.5863,-3.5887,-3.6124,-3.6062,-3.6064,-3.6054,-3.6069,-3.619,-3.6229,-3.6134,-3.6131,-3.615,-3.6275,-3.6318,-3.6332,-3.6519,-3.6371,-3.6381,-3.6388,-3.6392,-3.6847,-3.6852,0,0,0,0,0,0,-3.5851,-3.5879,-3.6119,-3.6129,-3.5954,-3.6064,-3.6081,-3.6141,-3.6227,-3.6236,-3.6154,-3.6147,-3.6302,-3.6319,-3.6337,-3.6538,-3.6383,-3.6393,-3.6399,-3.6841,-3.6848,-3.6854,0,0,0,0,0,0,-3.5845,-3.5873,-3.6113,-3.6003,-3.6033,-3.6075,-3.6142,-3.6146,-3.6189,-3.6242,-3.6249,-3.619,-3.6298,-3.6322,-3.6462,-3.6543,-3.6398,-3.6408,-3.6835,-3.6844,-3.6851,-3.6941,0,0,0,0,0,0,-3.5835,-3.5871,-3.5933,-3.6005,-3.6039,-3.6235,-3.6147,-3.6153,-3.6208,-3.62,-3.6278,-3.6286,-3.6296,-3.6446,-3.6473,-3.6555,-3.6417,-3.6828,-3.6839,-3.6849,-3.6931,-3.6951,-3.6968,0,0,0,0,0,-3.5824,-3.5953,-3.5937,-3.5966,-3.6117,-3.6239,-3.6259,-3.6267,-3.6214,-3.6278,-3.6312,-3.6284,-3.6529,-3.6461,-3.6491,-3.6578,-3.6823,-3.6836,-3.6848,-3.6922,-3.6947,-3.6968,0,0,0,0,0,0,-3.5891,-3.5962,-3.5945,-3.6101,-3.6165,-3.6231,-3.6312,-3.6293,-3.6374,-3.6364,-3.6371,-3.6389,-3.6534,-3.657,-3.6492,-3.6743,-3.6669,-3.6688,-3.6715,-3.6739,-3.6757,-3.6746,-3.6426,0,0,0,0,0,-3.5924,-3.6016,-3.6073,-3.6205,-3.6238,-3.627,-3.6323,-3.6324,-3.639,-3.6417,-3.6462,-3.6528,-3.6621,-3.6681,-3.6769,-3.6935,-3.6953,-3.701,-3.7028,-3.7044,-3.7061,-3.7153,-3.7179,-3.6895,-3.6895,-3.6895,0,0,-3.5993,-3.6043,-3.6101,-3.622,-3.6269,-3.6366,-3.6293,-3.6397,-3.647,-3.6434,-3.6569,-3.6604,-3.6679,-3.6833,-3.6904,-3.6868,-3.7143,-3.706,-3.7071,-3.708,-3.7168,-3.7195,-3.7219,-3.6903,-3.6902,-3.6901,0,0,-3.6168,-3.6215,-3.6331,-3.6381,-3.6457,-3.6477,-3.6505,-3.6575,-3.6596,-3.6732,-3.6708,-3.6794,-3.6953,-3.7008,-3.7056,-3.7254,-3.7231,-3.7282,-3.7381,-3.7471,-3.7493,-3.7513,-3.7585,-3.7611,-3.7298,-3.7299,-3.7299,0,-3.6245,-3.6388,-3.6393,-3.65,-3.6554,-3.6525,-3.6644,-3.6693,-3.6794,-3.6833,-3.679,-3.699,-3.7038,-3.7206,-3.7254,-3.7294,-3.7328,-3.7274,-3.7489,-3.7509,-3.7528,-3.7597,-3.7624,-3.7305,-3.7304,-3.7303,-3.7303,0,-3.648,-3.658,-3.6664,-3.6762,-3.6825,-3.6938,-3.6961,-3.7025,-3.702,-3.7046,-3.7185,-3.7242,-3.7342,-3.7381,-3.7378,-3.755,-3.7525,-3.7486,-3.7412,-3.7561,-3.7626,-3.7652,-3.7313,-3.7311,-3.7309,-3.7308,0,0,-3.6702,-3.6801,-3.6832,-3.6876,-3.6957,-3.7036,-3.7147,-3.7244,-3.73,-3.737,-3.7466,-3.7601,-3.7566,-3.7621,-3.7624,-3.7703,-3.7858,-3.7654,-3.7656,-3.7692,-3.8052,-3.8082,-3.8112,-3.7843,-3.7848,-3.7852,-3.8046,0,-3.6886,-3.7081,-3.7089,-3.7268,-3.7361,-3.7335,-3.7433,-3.7494,-3.7521,-3.7605,-3.7635,-3.7732,-3.7677,-3.7711,-3.7787,-3.7823,-3.793,-3.7808,-3.7933,-3.7938,-3.7917,-3.8146,-3.8178,-3.8359,-3.8072,-3.8076,-3.8079,0,-3.7126,-3.7203,-3.7391,-3.746,-3.75,-3.7587,-3.7677,-3.7757,-3.7827,-3.7841,-3.7904,-3.7896,-3.8012,-3.7932,-3.8094,-3.8011,-3.8062,-3.8088,-3.8095,-3.8108,-3.8018,-3.8167,-3.8416,-3.8444,-3.8119,-3.8116,-3.8113,0,-3.7271,-3.7423,-3.7555,-3.7594,-3.7677,-3.7739,-3.7777,-3.7842,-3.79,-3.7979,-3.8017,-3.8109,-3.816,-3.8232,-3.8249,-3.8189,-3.8412,-3.8333,-3.8428,-3.8428,-3.8477,-3.8474,-3.874,-3.8508,-3.8508,-3.8507,-3.8507,0,-3.7476,-3.7593,-3.7622,-3.7703,-3.7834,-3.7842,-3.7971,-3.8005,-3.8063,-3.8152,-3.8135,-3.822,-3.8237,-3.8325,-3.834,-3.8473,-3.8495,-3.8511,-3.8514,-3.8514,-3.8512,-3.8549,-3.8537,-3.8514,-3.8513,-3.8511,-3.851,0,-3.7661,-3.7685,-3.7828,-3.7895,-3.7915,-3.8008,-3.8066,-3.8146,-3.817,-3.8283,-3.831,-3.835,-3.8453,-3.8477,-3.86,-3.861,-3.8768,-3.8758,-3.8745,-3.8744,-3.8839,-3.8831,-3.9139,-3.9181,-3.892,-3.8922,-3.8924,0,-3.7791,-3.788,-3.7957,-3.8014,-3.8055,-3.8148,-3.8207,-3.822,-3.8282,-3.8369,-3.8439,-3.8539,-3.8621,-3.8788,-3.8829,-3.8923,-3.8916,-3.9018,-3.893,-3.8928,-3.892,-3.8915,-3.8925,-3.9035,-3.9038,-3.904,-3.9042,0,-3.802,-3.8027,-3.8112,-3.8202,-3.8273,-3.8344,-3.8413,-3.8462,-3.8483,-3.8555,-3.866,-3.8723,-3.8849,-3.895,-3.9045,-3.9086,-3.9069,-3.9069,-3.9096,-3.9098,-3.9087,-3.9096,-3.8792,-3.9062,-3.906,-3.9059,-3.9057,-3.9057,-3.8182,-3.8261,-3.8327,-3.8423,-3.8475,-3.854,-3.8618,-3.8653,-3.874,-3.8842,-3.8844,-3.896,-3.9029,-3.9155,-3.9201,-3.9292,-3.9261,-3.9301,-3.9311,-3.9321,-3.933,-3.9071,-3.931,-3.9309,-3.9308,-3.9308,-3.9308,0,-3.8412,-3.8453,-3.8541,-3.8637,-3.8713,-3.8688,-3.8763,-3.8829,-3.893,-3.8995,-3.9075,-3.9197,-3.9296,-3.9344,-3.9442,-3.9506,-3.9501,-3.9532,-3.9528,-3.9539,-3.9351,-3.9319,-3.9535,-3.9535,-3.9535,-3.9535,-3.9534,-3.9534,-3.854,-3.8672,-3.8688,-3.8846,-3.8887,-3.8999,-3.9044,-3.9104,-3.9156,-3.9293,-3.9374,-3.9404,-3.9464,-3.9566,-3.9656,-3.9668,-3.9706,-3.9741,-3.975,-3.9574,-3.9551,-3.9529,-3.9499,-3.9749,-3.9749,-3.9929,-3.9931,-3.9932]}]]